GFSWCAN_prec_kuchsnow_348.txt.gz
Snowfall_Accumulation
0.0 0.0 0.0 0.0 0.0 0.0 0.0 0.0 0.0 0.0 0.0 0.0 0.0 0.0 0.0 0.0 0.0 0.0 0.0 0.0 0.2 18.5 5.2 0.0 0.0 2.0 4.1 5.4 17.9 8.6 12.4 13.1 20.9 38.6 29.3 21.3 13.4 3.7 4.9 2.5 2.4 3.6 16.2 23.9 24.0 34.2 21.2 0.1 0.0 1.2 0.7 0.1 0.6 3.6
0.0 0.0 0.0 0.0 0.0 0.0 0.0 0.0 0.0 0.0 0.0 0.0 0.0 0.0 0.0 0.0 0.0 0.0 0.5 0.0 0.0 12.7 11.1 0.0 0.0 0.0 0.0 0.0 3.8 8.8 12.5 8.0 8.0 25.8 16.3 13.4 18.5 12.0 3.0 10.5 2.7 10.0 5.9 13.1 11.5 11.5 1.0 0.0 0.3 0.2 0.2 0.4 1.1 3.6
0.0 0.0 0.0 0.0 0.0 0.0 0.0 0.0 0.0 0.0 0.0 0.0 0.0 0.0 0.0 0.0 0.0 0.0 0.0 0.0 0.0 18.3 8.1 2.3 4.2 0.0 0.0 0.0 0.0 13.3 3.3 1.7 6.5 5.2 13.6 10.1 17.7 4.4 11.1 7.2 6.5 2.8 1.2 7.6 3.5 0.6 0.2 0.1 0.0 0.0 0.1 0.1 0.2 1.3
0.0 0.0 0.0 0.0 0.0 0.0 0.0 0.0 0.0 0.0 0.0 0.0 0.0 0.0 0.0 0.0 0.0 0.0 0.0 0.0 1.8 9.7 27.7 7.3 0.0 2.0 0.0 0.0 0.0 0.0 0.0 0.0 0.4 0.9 17.9 16.3 13.9 1.1 2.7 1.7 4.8 5.2 4.5 5.0 2.1 0.3 0.4 0.1 0.2 0.1 0.1 0.1 0.2 0.1
0.0 0.0 0.0 0.0 0.0 0.0 0.0 0.0 0.0 0.0 0.0 0.0 0.0 0.0 0.0 0.0 0.0 0.0 0.0 0.0 0.0 3.7 17.0 7.1 0.0 0.0 0.5 0.0 0.0 0.0 0.0 0.9 2.8 12.4 21.3 14.8 1.3 3.3 2.4 2.7 5.5 1.2 8.2 9.7 8.6 1.5 2.2 0.6 0.3 0.1 0.4 0.6 0.6 0.4
0.0 0.0 0.0 0.0 0.0 0.0 0.0 0.0 0.0 0.0 0.0 0.0 0.0 0.0 0.0 0.0 0.0 0.0 36.2 0.0 0.0 0.0 15.1 18.2 0.9 1.1 2.3 0.8 0.2 0.4 0.5 1.8 2.8 9.0 8.7 2.1 0.0 3.0 12.0 6.2 0.4 0.7 3.5 4.9 8.5 2.1 2.1 1.8 0.9 0.3 1.3 2.3 2.8 1.8
0.0 0.0 0.0 0.0 0.0 0.0 0.0 0.0 0.0 0.0 0.0 0.0 0.0 0.0 0.0 0.0 0.0 13.5 7.7 0.3 0.0 0.0 25.5 17.8 9.8 0.6 1.0 1.0 1.2 3.7 1.5 4.6 3.5 5.8 5.8 1.7 1.5 2.9 7.0 1.2 0.0 0.0 0.8 2.4 3.6 5.3 6.4 6.4 9.9 4.7 1.2 1.5 1.8 0.3
0.0 0.0 0.0 0.0 0.0 0.0 0.0 0.0 0.0 0.0 0.0 0.0 0.0 0.0 0.0 0.0 0.0 2.5 0.0 0.0 0.0 1.2 7.5 24.4 13.3 9.4 0.3 5.2 7.2 1.4 7.3 6.0 7.3 5.5 2.7 1.7 1.8 2.8 10.2 0.0 0.0 0.1 0.2 0.6 0.5 0.8 3.3 4.1 3.9 3.4 1.0 0.2 0.1 0.0
0.0 0.0 0.0 0.0 0.0 0.0 0.0 0.0 0.0 0.0 0.0 0.0 0.0 0.0 0.0 0.0 20.5 0.0 0.0 0.0 0.0 1.4 28.5 11.4 10.1 22.9 0.5 4.1 2.8 4.4 2.9 21.6 4.7 14.0 4.7 3.1 5.4 9.9 0.7 0.0 0.1 0.1 0.2 0.1 0.0 0.0 0.2 0.6 0.2 0.0 0.3 0.1 0.6 0.7
0.0 0.0 0.0 0.0 0.0 0.0 0.0 0.0 0.0 0.0 0.0 0.0 0.0 28.7 56.1 2.1 0.0 0.0 3.1 16.3 23.1 16.4 10.9 11.6 0.7 10.2 1.2 2.6 11.4 11.0 10.7 12.3 19.1 4.6 1.6 8.5 2.8 0.8 0.3 0.3 0.2 0.2 0.1 0.1 0.6 1.4 1.0 0.7 0.2 0.0 0.0 0.5 0.2 0.1
0.0 0.0 0.0 0.0 0.0 0.0 0.0 0.0 0.0 0.0 0.0 2.3 32.1 24.6 0.0 0.0 0.1 5.7 47.8 37.0 22.3 23.4 2.7 1.1 0.0 1.0 0.0 8.7 12.9 4.7 17.8 9.3 21.9 3.3 4.7 8.0 5.7 4.9 2.6 2.4 1.4 0.7 0.2 0.1 0.0 0.1 0.0 0.0 1.1 0.9 0.6 0.2 0.0 0.1
0.0 0.0 0.0 0.0 0.0 0.0 0.0 0.0 0.0 0.0 0.0 0.0 0.1 0.0 0.1 6.0 29.1 41.6 33.2 18.3 5.0 2.5 2.2 1.9 3.2 4.5 1.2 0.4 11.2 14.9 17.4 15.6 11.0 2.0 16.2 9.6 7.6 2.3 1.8 3.2 1.0 0.0 0.0 0.0 0.0 0.0 0.1 0.1 0.1 0.1 0.8 0.8 0.9 3.7
0.0 0.0 0.0 0.0 0.0 0.0 0.0 0.0 0.0 0.0 0.0 0.0 6.7 18.7 23.2 26.5 50.6 31.8 21.4 9.4 6.8 1.0 1.1 0.8 9.2 3.2 4.5 2.6 15.7 18.9 36.1 18.4 2.8 31.2 18.3 10.4 3.5 4.3 3.3 0.8 0.3 0.4 0.5 0.2 0.5 0.0 0.0 0.0 0.7 1.6 2.8 6.2 5.8 6.0
0.0 0.0 0.0 0.0 0.0 0.0 0.0 0.0 0.0 0.0 0.5 17.3 28.2 42.5 25.5 21.3 11.5 6.3 3.5 2.2 0.9 0.7 1.0 2.8 7.2 10.1 3.9 11.5 10.2 25.2 13.1 12.7 27.7 19.6 19.2 16.8 8.2 4.8 3.9 3.4 3.3 2.7 2.5 2.2 1.1 0.8 1.9 1.6 3.0 4.5 4.7 7.0 6.5 7.0
0.0 0.0 0.0 0.0 0.0 0.0 0.0 0.0 0.0 0.0 13.9 25.4 13.0 18.7 9.4 7.5 4.6 3.4 2.2 1.3 1.1 1.8 4.3 9.4 9.5 8.6 16.6 28.9 11.9 9.8 18.7 20.3 14.6 22.2 18.3 13.3 8.4 6.6 6.2 7.0 7.5 9.8 10.5 9.5 11.9 13.1 12.6 10.3 8.4 11.4 11.5 10.3 8.2 9.3
0.0 0.0 0.0 0.0 0.0 0.0 0.0 0.0 1.2 4.0 18.0 14.0 12.3 12.1 6.2 4.6 7.4 5.3 4.5 3.8 1.7 3.2 5.6 9.4 16.0 18.4 21.5 15.9 20.3 16.8 17.0 22.5 24.2 15.4 10.9 5.6 5.4 5.8 6.8 7.8 9.0 10.2 12.1 12.9 13.0 14.9 17.5 19.4 19.8 20.6 19.8 17.6 17.0 14.8
0.0 4.2 0.0 0.0 0.0 0.5 1.6 3.5 9.5 30.4 19.5 11.3 14.0 7.6 8.2 9.7 8.1 7.2 7.1 6.9 4.8 9.7 17.8 14.2 27.7 17.5 8.0 15.5 12.1 11.2 22.2 21.5 12.8 9.1 6.4 5.4 7.6 7.1 7.4 6.8 7.9 8.3 11.4 13.0 13.7 14.8 16.8 18.0 17.0 15.5 17.9 21.3 18.0 17.9
0.5 0.0 0.0 0.0 0.0 3.7 7.0 4.1 16.0 14.6 16.1 10.4 14.1 13.2 7.3 9.0 10.2 9.2 8.0 8.3 8.1 8.1 8.4 20.1 8.3 10.0 11.1 12.7 21.8 19.8 17.6 12.7 7.2 7.3 8.3 8.7 8.1 8.8 7.6 6.8 8.1 8.5 10.1 13.0 12.4 14.1 14.0 12.4 11.2 13.6 13.5 14.4 13.0 14.5
0.4 0.2 0.0 0.0 0.2 10.5 23.2 14.7 5.5 16.8 13.0 9.6 8.5 7.7 6.4 10.1 12.1 10.7 10.7 9.6 6.4 4.1 10.7 10.0 13.4 7.7 10.8 13.2 18.1 14.8 11.5 9.2 11.7 12.5 13.3 13.0 11.9 10.6 10.0 9.4 8.7 11.7 11.9 13.9 12.3 11.2 12.4 11.4 9.7 9.7 10.4 10.3 9.7 11.8
0.0 0.2 0.0 0.3 0.7 20.6 21.7 12.3 0.7 7.6 13.0 9.2 6.0 6.6 6.3 11.4 10.4 8.9 7.1 5.9 5.5 9.0 14.5 16.0 15.1 16.9 18.9 18.4 18.5 16.6 12.8 10.1 8.5 10.6 14.2 16.5 16.9 13.0 13.0 12.8 13.7 13.0 11.3 11.8 12.2 12.5 11.8 12.2 12.1 8.3 7.3 9.0 9.6 10.2
0.4 0.0 0.0 0.7 5.2 11.7 11.3 6.9 9.0 4.5 6.6 9.2 5.3 2.7 7.9 3.2 4.9 5.4 4.7 2.0 5.7 11.5 14.5 16.1 19.2 18.1 18.0 19.9 16.9 12.5 12.0 8.7 10.8 8.9 10.8 13.9 15.6 11.1 12.6 13.3 11.5 11.4 9.4 10.8 11.2 14.6 12.1 10.5 10.5 9.3 7.1 6.6 7.4 7.9
2.1 0.2 5.2 1.8 16.2 14.7 14.6 3.4 3.4 4.2 7.2 7.3 4.3 3.6 6.3 7.2 4.4 4.4 1.2 4.4 13.0 19.2 17.0 17.6 17.4 15.9 14.3 16.1 17.6 14.8 16.3 10.6 9.9 10.0 11.1 9.2 12.1 11.5 13.0 14.4 10.1 11.0 10.2 10.4 9.1 11.1 10.3 8.1 6.9 7.8 8.3 8.6 6.5 6.6
1.3 2.8 12.3 11.6 18.0 13.5 6.4 2.4 7.2 7.2 12.5 10.9 4.7 5.5 8.2 5.8 4.4 0.2 7.8 10.1 17.9 19.7 16.3 13.5 14.7 14.9 15.3 17.3 13.0 12.4 14.5 11.4 13.5 16.3 15.6 14.4 13.3 13.0 11.6 12.4 10.4 9.4 10.8 11.8 8.2 7.6 7.7 7.2 7.7 9.6 9.8 8.7 7.5 7.8
1.7 16.4 20.4 16.6 11.7 9.3 4.2 8.0 7.7 8.4 7.2 8.8 8.4 10.4 8.4 4.5 0.4 5.7 12.5 16.1 18.7 12.1 10.5 12.4 10.5 13.2 13.2 11.8 14.2 15.1 18.3 11.9 12.7 14.8 15.2 11.4 10.4 12.9 10.1 10.2 7.6 7.6 6.9 8.0 7.5 7.5 7.3 7.6 6.4 7.2 7.0 8.2 7.8 8.6
37.4 25.2 12.6 14.5 7.7 9.2 6.7 4.3 4.7 8.5 12.8 10.8 13.3 13.7 14.1 6.4 13.0 12.5 14.8 18.7 12.6 11.2 10.8 10.6 10.0 10.3 10.7 13.5 15.0 15.7 14.4 13.9 15.2 15.2 17.0 13.1 12.6 11.1 10.1 9.6 9.2 8.6 5.7 7.9 9.9 9.6 8.9 7.7 7.4 6.6 5.4 5.1 7.7 6.6
25.3 8.0 11.4 7.6 7.7 9.0 9.3 7.9 8.3 6.4 7.0 7.4 8.4 4.6 3.9 8.8 11.1 20.0 18.8 19.2 14.2 14.0 14.6 14.5 14.1 10.4 11.3 12.2 12.1 9.5 11.6 11.6 11.4 11.4 17.0 13.6 14.3 14.6 14.9 14.3 13.4 12.4 6.6 7.0 9.6 9.9 8.6 7.4 7.3 7.5 8.1 6.3 6.2 6.4
16.8 5.5 1.7 0.7 1.6 2.6 3.7 3.7 3.9 5.5 8.0 9.4 9.6 7.4 8.0 14.7 14.5 15.1 12.5 11.9 12.1 13.8 11.9 11.9 10.5 11.9 12.7 11.9 10.5 9.4 8.0 6.9 7.7 10.9 12.2 11.7 12.2 13.4 15.0 18.4 19.3 16.4 10.0 8.8 8.0 7.9 9.7 9.1 9.1 8.7 8.8 8.1 7.8 7.6
5.3 2.1 2.9 2.0 2.8 2.3 4.5 3.7 7.2 8.9 6.9 4.7 7.6 8.5 12.1 11.3 16.2 15.7 13.5 12.4 9.9 7.8 6.6 6.0 5.2 5.9 6.6 7.4 7.5 6.7 5.7 6.4 6.7 6.4 5.6 6.0 8.7 12.4 13.3 13.5 11.0 9.4 10.0 9.8 10.1 9.3 9.1 9.3 9.1 9.5 9.1 8.6 8.8 7.7
4.6 2.7 3.1 4.8 3.9 5.2 8.9 7.6 7.9 5.3 4.4 4.6 6.4 7.6 9.7 10.0 14.6 13.0 12.0 8.7 7.4 6.1 5.4 4.2 4.8 2.3 2.1 1.6 1.5 3.3 4.7 5.4 5.2 7.1 5.8 7.9 10.6 10.6 9.7 10.1 9.7 10.1 10.1 11.4 10.4 9.6 9.9 8.7 8.3 8.1 9.4 10.6 8.5 7.8
2.7 2.3 3.1 3.7 3.7 5.4 9.8 4.7 5.9 4.1 1.8 1.8 2.4 4.3 4.8 12.7 18.2 12.6 8.6 6.3 5.5 6.2 6.0 4.9 4.0 2.8 2.8 2.4 2.7 2.6 3.9 4.4 4.9 6.9 7.6 6.1 8.0 7.8 7.1 8.7 9.7 8.9 9.8 10.1 13.0 13.8 13.5 12.0 11.2 11.4 10.9 9.4 9.3 10.8
0.8 1.3 1.8 3.4 7.0 9.9 6.8 4.7 4.5 2.4 1.7 1.4 1.6 4.3 6.6 10.3 12.3 7.9 5.5 6.5 4.3 3.0 2.7 2.9 3.4 3.5 2.8 3.7 5.4 5.6 6.0 4.0 3.6 4.2 4.7 5.4 5.2 5.4 5.6 6.1 7.9 8.1 9.0 10.0 9.3 11.2 14.1 13.8 12.9 12.9 11.4 9.9 8.8 9.3
1.4 2.9 2.9 3.3 6.9 7.2 6.4 8.7 6.2 4.9 4.8 4.5 6.9 4.5 7.2 6.8 8.3 10.3 6.2 4.9 4.2 3.3 2.9 4.0 4.1 4.7 5.6 7.0 7.2 7.8 7.4 5.5 4.4 4.4 4.1 4.9 5.4 5.6 6.1 6.0 6.0 6.4 6.3 7.1 7.4 9.0 9.7 11.9 14.6 13.0 11.2 10.8 10.7 9.6
4.2 2.9 2.4 4.6 5.3 5.9 4.1 6.2 3.8 6.4 6.3 8.0 10.9 7.5 6.6 6.2 10.7 12.7 5.5 5.1 8.8 7.3 6.9 7.9 7.7 7.7 8.2 8.0 8.4 7.0 5.1 5.6 5.2 5.0 4.8 5.2 5.2 5.3 5.0 5.7 5.8 5.8 5.5 5.6 6.2 7.1 7.1 8.8 9.8 12.9 13.7 13.7 14.5 13.5

GFSWCAN_prec_kuchsnow_354.txt.gz
Snowfall_Accumulation
0.0 0.0 0.0 0.0 0.0 0.0 0.0 0.0 0.0 0.0 0.0 0.0 0.0 0.0 0.0 0.0 0.0 0.0 0.0 0.0 0.2 18.5 5.2 0.0 0.0 2.0 4.1 5.4 17.9 8.6 12.4 13.1 20.9 38.6 29.3 21.3 13.4 3.7 4.9 2.5 2.4 3.6 16.2 23.9 24.0 34.2 21.2 0.1 0.0 1.2 0.7 0.1 0.6 3.6
0.0 0.0 0.0 0.0 0.0 0.0 0.0 0.0 0.0 0.0 0.0 0.0 0.0 0.0 0.0 0.0 0.0 0.0 0.5 0.0 0.0 12.7 11.1 0.0 0.0 0.0 0.0 0.0 3.8 8.8 12.5 8.0 8.0 25.8 16.3 13.4 18.5 12.0 3.0 10.5 2.7 10.0 5.9 13.1 11.5 11.5 1.0 0.0 0.3 0.2 0.2 0.4 1.1 3.6
0.0 0.0 0.0 0.0 0.0 0.0 0.0 0.0 0.0 0.0 0.0 0.0 0.0 0.0 0.0 0.0 0.0 0.0 0.0 0.0 0.0 18.3 8.1 2.3 4.2 0.0 0.0 0.0 0.0 13.3 3.3 1.7 6.5 5.2 13.6 10.1 17.7 4.4 11.1 7.2 6.5 2.8 1.2 7.6 3.5 0.6 0.2 0.1 0.0 0.0 0.1 0.1 0.2 1.3
0.0 0.0 0.0 0.0 0.0 0.0 0.0 0.0 0.0 0.0 0.0 0.0 0.0 0.0 0.0 0.0 0.0 0.0 0.0 0.0 1.8 9.7 27.7 7.3 0.0 2.0 0.0 0.0 0.0 0.0 0.0 0.0 0.4 0.9 17.9 16.3 13.9 1.1 2.7 1.7 4.8 5.2 4.5 5.0 2.1 0.3 0.4 0.1 0.2 0.1 0.1 0.1 0.2 0.1
0.0 0.0 0.0 0.0 0.0 0.0 0.0 0.0 0.0 0.0 0.0 0.0 0.0 0.0 0.0 0.0 0.0 0.0 0.0 0.0 0.0 3.7 17.0 7.1 0.0 0.0 0.5 0.0 0.0 0.0 0.0 0.9 2.8 12.4 21.3 14.9 1.4 3.3 2.4 2.7 5.5 1.2 8.2 9.7 8.6 1.5 2.2 0.6 0.3 0.1 0.4 0.6 0.6 0.4
0.0 0.0 0.0 0.0 0.0 0.0 0.0 0.0 0.0 0.0 0.0 0.0 0.0 0.0 0.0 0.0 0.0 0.0 36.2 0.0 0.0 0.0 15.1 18.2 0.9 1.1 2.3 0.8 0.2 0.4 0.5 1.8 2.8 9.0 8.7 2.1 0.0 3.0 12.0 6.2 0.4 0.7 3.5 4.9 8.5 2.1 2.1 1.8 0.9 0.3 1.3 2.3 2.8 1.8
0.0 0.0 0.0 0.0 0.0 0.0 0.0 0.0 0.0 0.0 0.0 0.0 0.0 0.0 0.0 0.0 0.0 13.5 7.7 0.3 0.0 0.0 25.5 17.8 9.8 0.6 1.0 1.0 1.2 3.7 1.5 4.6 3.5 5.8 5.8 1.7 1.5 2.9 7.1 1.2 0.0 0.0 0.8 2.4 3.6 5.3 6.4 6.4 9.9 4.7 1.2 1.5 1.8 0.3
0.0 0.0 0.0 0.0 0.0 0.0 0.0 0.0 0.0 0.0 0.0 0.0 0.0 0.0 0.0 0.0 0.0 2.5 0.0 0.0 0.0 1.2 7.5 24.4 13.3 9.4 0.3 5.2 7.2 1.4 7.3 6.0 7.3 5.5 2.7 1.7 1.8 2.8 10.4 0.0 0.0 0.1 0.2 0.6 0.5 0.8 3.3 4.1 3.9 3.4 1.0 0.2 0.1 0.0
0.0 0.0 0.0 0.0 0.0 0.0 0.0 0.0 0.0 0.0 0.0 0.0 0.0 0.0 0.0 0.0 20.5 0.0 0.0 0.0 0.0 1.4 28.5 11.4 10.1 22.9 0.5 4.1 2.8 4.4 2.9 21.7 4.7 14.1 4.7 3.1 5.4 10.1 0.7 0.0 0.1 0.1 0.2 0.1 0.0 0.0 0.2 0.6 0.2 0.0 0.3 0.1 0.6 0.7
0.0 0.0 0.0 0.0 0.0 0.0 0.0 0.0 0.0 0.0 0.0 0.0 0.0 28.7 56.2 2.1 0.0 0.0 3.1 16.3 23.1 16.4 10.9 11.6 0.7 10.2 1.2 2.6 11.4 11.0 10.8 12.3 19.3 4.6 1.6 8.6 2.8 0.8 0.3 0.3 0.2 0.2 0.1 0.1 0.6 1.4 1.0 0.7 0.2 0.0 0.0 0.5 0.2 0.1
0.0 0.0 0.0 0.0 0.0 0.0 0.0 0.0 0.0 0.0 0.0 2.3 32.1 24.7 0.0 0.0 0.1 5.7 47.8 37.0 22.3 23.4 2.7 1.1 0.0 1.0 0.0 8.7 12.9 4.7 17.8 9.6 22.7 3.3 4.8 8.1 5.7 4.9 2.6 2.4 1.4 0.7 0.2 0.1 0.0 0.1 0.0 0.0 1.1 0.9 0.6 0.2 0.0 0.1
0.0 0.0 0.0 0.0 0.0 0.0 0.0 0.0 0.0 0.0 0.0 0.0 0.1 0.0 0.1 6.0 29.1 41.6 33.2 18.3 5.0 2.5 2.2 1.9 3.2 4.5 1.2 0.4 11.2 14.9 17.4 15.6 11.1 2.4 17.8 9.8 7.7 2.3 1.9 3.2 1.0 0.0 0.0 0.0 0.0 0.0 0.1 0.1 0.1 0.1 0.8 0.8 0.9 3.7
0.0 0.0 0.0 0.0 0.0 0.0 0.0 0.0 0.0 0.0 0.0 0.0 6.7 18.7 23.2 26.5 50.6 31.8 21.4 9.4 6.8 1.0 1.1 0.8 9.2 3.2 4.5 2.6 15.7 18.9 36.1 18.6 2.8 31.3 19.2 11.9 4.2 4.8 4.1 0.8 0.3 0.4 0.5 0.2 0.6 0.0 0.0 0.0 0.7 1.6 2.8 6.2 5.8 6.0
0.0 0.0 0.0 0.0 0.0 0.0 0.0 0.0 0.0 0.0 0.5 17.4 28.2 42.5 25.5 21.3 11.5 6.3 3.5 2.2 0.9 0.7 1.0 2.8 7.2 10.1 3.9 11.5 10.2 25.3 13.1 12.7 27.9 19.9 19.4 16.8 8.2 4.8 3.9 3.4 4.2 4.5 3.2 2.2 1.1 0.8 1.9 1.6 3.0 4.5 4.7 7.0 6.5 7.0
0.0 0.0 0.0 0.0 0.0 0.0 0.0 0.0 0.0 0.0 13.9 25.4 13.0 18.7 9.4 7.5 4.6 3.4 2.2 1.3 1.1 1.8 4.3 9.4 9.5 8.6 16.6 28.9 11.9 10.0 19.2 20.7 14.8 22.3 18.3 13.3 8.4 6.6 6.2 7.0 7.5 10.1 10.8 9.5 11.9 13.1 12.6 10.3 8.4 11.4 11.5 10.3 8.2 9.3
0.0 0.0 0.0 0.0 0.0 0.0 0.0 0.0 1.2 4.0 18.0 14.0 12.3 12.1 6.2 4.6 7.4 5.3 4.5 3.8 1.7 3.2 5.6 9.4 16.8 18.8 21.6 16.2 20.4 16.8 17.1 22.6 24.4 15.4 10.9 5.6 5.4 5.8 6.8 7.8 9.0 10.2 12.1 12.9 13.0 14.9 17.5 19.4 19.8 20.6 19.8 17.6 17.0 14.8
0.0 4.2 0.0 0.0 0.0 0.5 1.6 3.5 9.5 30.4 19.5 11.3 14.0 7.6 8.2 9.7 8.1 7.2 7.1 6.9 4.8 9.7 17.8 14.3 28.0 17.5 8.5 15.7 12.3 11.2 22.2 21.5 12.8 9.1 6.4 5.4 7.6 7.1 7.4 6.8 7.9 8.3 11.4 13.0 13.7 14.8 16.8 18.0 17.0 15.5 17.9 21.3 18.0 17.9
0.5 0.0 0.0 0.0 0.0 3.7 8.3 4.5 16.3 14.8 16.1 10.4 14.1 13.2 7.3 9.0 10.2 9.2 8.0 8.3 8.1 8.1 8.4 20.1 8.3 10.1 11.8 13.2 22.1 19.9 17.6 12.7 7.2 7.3 8.3 8.7 8.1 8.8 7.6 6.8 8.1 8.5 10.1 13.0 12.4 14.1 14.0 12.4 11.2 13.6 13.5 14.4 13.0 14.5
0.4 0.2 0.0 0.0 0.2 10.7 24.4 16.2 5.7 16.8 13.0 9.6 8.5 7.7 6.4 10.1 12.1 10.7 10.7 9.6 6.4 4.1 10.7 10.0 13.4 7.7 10.8 13.2 18.1 14.8 11.5 9.2 11.7 12.5 13.3 13.0 11.9 10.6 10.0 9.4 8.7 11.7 11.9 13.9 12.3 11.2 12.4 11.4 9.7 9.7 10.4 10.3 9.7 11.8
0.0 0.2 0.0 0.3 0.7 20.8 22.1 12.6 0.7 7.6 13.0 9.2 6.0 6.6 6.3 11.4 10.4 8.9 7.1 5.9 5.5 9.0 14.5 16.0 15.1 16.9 18.9 18.4 18.5 16.6 12.8 10.1 8.5 10.6 14.2 16.5 16.9 13.0 13.0 12.8 13.7 13.0 11.3 11.8 12.2 12.5 11.8 12.2 12.1 8.3 7.3 9.0 9.6 10.2
0.4 0.0 0.0 0.7 5.4 11.7 11.3 6.9 9.0 4.5 6.6 9.2 5.3 2.7 7.9 3.2 4.9 5.4 4.7 2.0 5.7 11.5 14.5 16.1 19.2 18.1 18.0 19.9 16.9 12.5 12.0 8.7 10.8 8.9 10.8 13.9 15.6 11.1 12.6 13.3 11.5 11.4 9.4 10.8 11.2 14.6 12.1 10.5 10.5 9.3 7.1 6.6 7.4 7.9
7.6 0.2 7.2 1.8 16.7 14.8 14.6 3.4 3.4 4.2 7.2 7.3 4.3 3.6 6.3 7.2 4.4 4.4 1.2 4.4 13.0 19.2 17.0 17.6 17.4 15.9 14.3 16.1 17.6 14.8 16.3 10.6 9.9 10.0 11.1 9.2 12.1 11.5 13.0 14.4 10.1 11.0 10.2 10.4 9.1 11.1 10.3 8.1 6.9 7.8 8.3 8.6 6.5 6.6
1.3 2.8 13.1 12.8 19.3 14.0 6.4 2.4 7.2 7.2 12.5 10.9 4.7 5.5 8.2 5.8 4.4 0.2 7.8 10.1 17.9 19.7 16.3 13.5 14.7 14.9 15.3 17.3 13.0 12.4 14.5 11.4 13.5 16.3 15.6 14.4 13.3 13.0 11.6 12.4 10.4 9.4 10.8 11.8 8.2 7.6 7.7 7.2 7.7 9.6 9.8 8.7 7.6 8.0
1.7 17.9 22.9 18.1 12.0 9.5 4.2 8.0 7.7 8.4 7.2 8.8 8.4 10.4 8.4 4.5 0.4 5.7 12.5 16.1 18.7 12.1 10.5 12.4 10.5 13.2 13.2 11.8 14.2 15.1 18.3 11.9 12.7 14.8 15.2 11.4 10.4 12.9 10.1 10.2 7.6 7.6 6.9 8.0 7.5 7.5 7.3 7.6 6.4 7.2 7.0 8.2 7.9 8.8
40.2 28.4 13.2 15.0 7.8 9.2 6.7 4.3 4.7 8.5 12.8 10.8 13.3 13.7 14.1 6.4 13.0 12.5 14.8 18.7 12.6 11.2 10.8 10.6 10.0 10.3 10.7 13.5 15.0 15.7 14.4 13.9 15.2 15.2 17.0 13.1 12.6 11.1 10.1 9.6 9.2 8.6 5.7 7.9 9.9 9.6 8.9 7.8 7.4 6.6 5.5 5.2 7.8 6.9
26.7 8.9 11.7 7.6 7.7 9.0 9.3 7.9 8.3 6.4 7.0 7.4 8.4 4.6 3.9 8.8 11.1 20.0 18.8 19.2 14.2 14.0 14.6 14.5 14.1 10.4 11.3 12.2 12.1 9.5 11.6 11.6 11.4 11.4 17.0 13.6 14.3 14.6 14.9 14.3 13.4 12.4 6.6 7.0 9.6 10.2 8.9 7.6 7.5 7.5 8.3 6.5 6.6 6.9
17.2 5.5 1.7 0.7 1.6 2.6 3.7 3.7 3.9 5.5 8.0 9.4 9.6 7.4 8.0 14.7 14.5 15.1 12.5 11.9 12.1 13.8 11.9 11.9 10.5 11.9 12.7 11.9 10.5 9.4 8.0 6.9 7.7 10.9 12.2 11.7 12.2 13.4 15.0 18.4 19.3 16.4 10.1 9.0 8.3 8.2 10.1 9.7 9.6 9.1 9.2 8.6 8.5 8.2
5.3 2.1 2.9 2.0 2.8 2.3 4.5 3.7 7.2 8.9 6.9 4.7 7.6 8.5 12.1 11.3 16.2 15.7 13.5 12.4 9.9 7.8 6.6 6.0 5.2 5.9 6.6 7.4 7.5 6.7 5.7 6.4 6.7 6.4 5.6 6.0 8.7 12.4 13.3 13.5 11.0 9.7 10.3 10.1 10.5 10.1 9.8 10.1 9.8 10.1 9.7 9.3 9.7 8.8
4.6 2.7 3.1 4.8 3.9 5.2 8.9 7.6 7.9 5.3 4.4 4.6 6.4 7.6 9.7 10.0 14.6 13.0 12.0 8.7 7.4 6.1 5.4 4.2 4.8 2.3 2.1 1.6 1.5 3.3 4.7 5.4 5.2 7.1 5.8 7.9 10.6 10.6 9.8 10.3 10.1 10.7 11.0 12.3 11.6 10.6 10.8 9.6 9.1 8.8 10.2 11.4 9.4 8.9
2.7 2.3 3.1 3.7 3.7 5.4 9.8 4.7 5.9 4.1 1.8 1.8 2.4 4.3 4.8 12.7 18.2 12.6 8.6 6.3 5.5 6.2 6.0 4.9 4.0 2.8 2.8 2.4 2.7 2.6 3.9 4.4 4.9 6.9 7.6 6.1 8.0 7.8 7.3 9.6 10.9 10.5 11.3 11.4 14.1 14.9 14.7 13.1 12.3 12.5 12.0 10.8 10.8 12.4
0.8 1.3 1.8 3.4 7.0 9.9 6.8 4.7 4.5 2.4 1.7 1.4 1.6 4.3 6.6 10.3 12.3 7.9 5.5 6.5 4.3 3.0 2.7 2.9 3.4 3.5 2.8 3.7 5.4 5.6 6.0 4.0 3.6 4.2 4.7 5.4 5.3 6.0 6.6 7.3 9.8 9.9 10.4 11.3 10.4 12.0 15.0 14.9 14.1 14.3 12.9 11.2 10.0 10.4
1.4 2.9 2.9 3.3 6.9 7.2 6.4 8.7 6.2 4.9 4.8 4.5 6.9 4.5 7.2 6.8 8.3 10.3 6.2 4.9 4.2 3.3 2.9 4.0 4.1 4.7 5.6 7.0 7.2 7.8 7.4 5.5 4.4 4.4 4.1 5.0 6.0 6.5 7.5 8.0 7.7 7.7 7.3 8.1 8.1 9.7 10.4 12.9 16.0 14.6 13.1 12.9 12.8 11.3
4.2 2.9 2.4 4.6 5.3 5.9 4.1 6.2 3.8 6.4 6.3 8.0 10.9 7.5 6.6 6.2 10.7 12.7 5.5 5.1 8.8 7.3 6.9 7.9 7.7 7.7 8.2 8.0 8.4 7.0 5.1 5.6 5.2 5.0 5.0 5.7 5.8 6.4 7.0 7.3 7.2 7.0 6.2 6.1 6.8 7.7 7.7 9.4 10.6 14.0 14.9 15.0 15.9 15.0

GFSWCAN_prec_kuchsnow_357.txt.gz
Snowfall_Accumulation
0.0 0.0 0.0 0.0 0.0 0.0 0.0 0.0 0.0 0.0 0.0 0.0 0.0 0.0 0.0 0.0 0.0 0.0 0.0 0.0 0.2 18.5 5.2 0.0 0.0 2.0 4.1 5.4 17.9 8.6 12.4 13.1 20.9 38.6 29.3 21.3 13.4 3.7 4.9 2.5 2.4 3.6 16.2 23.9 24.0 34.2 21.2 0.1 0.0 1.2 0.7 0.1 0.6 3.6
0.0 0.0 0.0 0.0 0.0 0.0 0.0 0.0 0.0 0.0 0.0 0.0 0.0 0.0 0.0 0.0 0.0 0.0 0.5 0.0 0.0 12.7 11.1 0.0 0.0 0.0 0.0 0.0 3.8 8.8 12.5 8.0 8.0 25.8 16.3 13.4 18.5 12.0 3.0 10.5 2.7 10.0 5.9 13.1 11.5 11.5 1.0 0.0 0.3 0.2 0.2 0.4 1.1 3.6
0.0 0.0 0.0 0.0 0.0 0.0 0.0 0.0 0.0 0.0 0.0 0.0 0.0 0.0 0.0 0.0 0.0 0.0 0.0 0.0 0.0 18.3 8.1 2.3 4.2 0.0 0.0 0.0 0.0 13.3 3.3 1.7 6.5 5.2 13.6 10.1 17.7 4.4 11.1 7.2 6.5 2.8 1.2 7.6 3.5 0.6 0.2 0.1 0.0 0.0 0.1 0.1 0.2 1.3
0.0 0.0 0.0 0.0 0.0 0.0 0.0 0.0 0.0 0.0 0.0 0.0 0.0 0.0 0.0 0.0 0.0 0.0 0.0 0.0 1.8 9.7 27.7 7.3 0.0 2.0 0.0 0.0 0.0 0.0 0.0 0.0 0.4 0.9 17.9 16.3 13.9 1.1 2.7 1.7 4.8 5.2 4.5 5.0 2.1 0.3 0.4 0.1 0.2 0.1 0.1 0.1 0.2 0.1
0.0 0.0 0.0 0.0 0.0 0.0 0.0 0.0 0.0 0.0 0.0 0.0 0.0 0.0 0.0 0.0 0.0 0.0 0.0 0.0 0.0 3.7 17.0 7.1 0.0 0.0 0.5 0.0 0.0 0.0 0.0 0.9 2.8 12.4 21.3 14.9 1.4 3.3 2.4 2.7 5.5 1.2 8.2 9.7 8.6 1.5 2.2 0.6 0.3 0.1 0.4 0.6 0.6 0.4
0.0 0.0 0.0 0.0 0.0 0.0 0.0 0.0 0.0 0.0 0.0 0.0 0.0 0.0 0.0 0.0 0.0 0.0 36.2 0.0 0.0 0.0 15.1 18.2 0.9 1.1 2.3 0.8 0.2 0.4 0.5 1.8 2.8 9.0 8.7 2.1 0.0 3.0 12.0 6.2 0.4 0.7 3.5 4.9 8.5 2.1 2.1 1.8 0.9 0.3 1.3 2.3 2.8 1.8
0.0 0.0 0.0 0.0 0.0 0.0 0.0 0.0 0.0 0.0 0.0 0.0 0.0 0.0 0.0 0.0 0.0 13.5 7.7 0.3 0.0 0.0 25.5 17.8 9.8 0.6 1.0 1.0 1.2 3.7 1.5 4.6 3.5 5.8 5.8 1.7 1.5 2.9 7.1 1.2 0.0 0.0 0.8 2.4 3.6 5.3 6.4 6.4 9.9 4.7 1.2 1.5 1.8 0.3
0.0 0.0 0.0 0.0 0.0 0.0 0.0 0.0 0.0 0.0 0.0 0.0 0.0 0.0 0.0 0.0 0.0 2.5 0.0 0.0 0.0 1.2 7.5 24.4 13.3 9.4 0.3 5.2 7.2 1.4 7.3 6.0 7.3 5.5 2.7 1.7 1.8 2.8 10.4 0.0 0.0 0.1 0.2 0.6 0.5 0.8 3.3 4.1 3.9 3.4 1.0 0.2 0.1 0.0
0.0 0.0 0.0 0.0 0.0 0.0 0.0 0.0 0.0 0.0 0.0 0.0 0.0 0.0 0.0 0.0 20.5 0.0 0.0 0.0 0.0 1.4 28.5 11.4 10.1 22.9 0.5 4.1 2.8 4.4 2.9 21.7 4.7 14.1 4.7 3.1 5.4 10.1 0.7 0.0 0.1 0.1 0.2 0.1 0.0 0.0 0.2 0.6 0.2 0.0 0.3 0.1 0.6 0.7
0.0 0.0 0.0 0.0 0.0 0.0 0.0 0.0 0.0 0.0 0.0 0.0 0.0 28.7 56.2 2.1 0.0 0.0 3.1 16.3 23.1 16.4 10.9 11.6 0.7 10.2 1.2 2.6 11.4 11.0 10.8 12.3 19.4 4.6 1.6 8.6 2.8 0.8 0.3 0.3 0.2 0.2 0.1 0.1 0.6 1.4 1.0 0.7 0.2 0.0 0.0 0.5 0.2 0.1
0.0 0.0 0.0 0.0 0.0 0.0 0.0 0.0 0.0 0.0 0.0 2.3 32.1 24.8 0.0 0.0 0.1 5.7 47.8 37.0 22.3 23.4 2.7 1.1 0.0 1.0 0.0 8.7 12.9 4.7 17.8 9.6 22.8 3.3 4.8 8.2 5.7 4.9 2.6 2.4 1.4 0.7 0.2 0.1 0.0 0.1 0.0 0.0 1.1 0.9 0.6 0.2 0.0 0.1
0.0 0.0 0.0 0.0 0.0 0.0 0.0 0.0 0.0 0.0 0.0 0.0 0.1 0.0 0.1 6.0 29.1 41.6 33.2 18.3 5.0 2.5 2.2 1.9 3.2 4.5 1.2 0.4 11.2 14.9 17.4 15.6 11.1 2.4 18.0 9.8 7.7 2.3 1.9 3.2 1.0 0.0 0.0 0.0 0.0 0.0 0.1 0.1 0.1 0.1 0.8 0.8 0.9 3.7
0.0 0.0 0.0 0.0 0.0 0.0 0.0 0.0 0.0 0.0 0.0 0.0 6.7 18.7 23.2 26.5 50.6 31.8 21.4 9.4 6.8 1.0 1.1 0.8 9.2 3.2 4.5 2.6 15.7 18.9 36.1 18.6 2.8 31.5 19.2 11.9 4.2 4.8 4.1 0.8 0.3 0.4 0.5 0.2 0.6 0.0 0.0 0.0 0.7 1.6 2.8 6.2 5.8 6.0
0.0 0.0 0.0 0.0 0.0 0.0 0.0 0.0 0.0 0.0 0.5 17.4 28.2 42.5 25.5 21.3 11.5 6.3 3.5 2.2 0.9 0.7 1.0 2.8 7.2 10.1 3.9 11.5 10.2 25.3 13.1 12.7 28.1 19.9 19.5 16.8 8.2 4.8 3.9 3.4 4.2 4.5 3.2 2.2 1.1 0.8 1.9 1.6 3.0 4.5 4.7 7.0 6.5 7.0
0.0 0.0 0.0 0.0 0.0 0.0 0.0 0.0 0.0 0.0 13.9 25.4 13.0 18.7 9.4 7.5 4.6 3.4 2.2 1.3 1.1 1.8 4.3 9.4 9.5 8.6 16.6 28.9 11.9 10.0 19.2 20.7 14.8 22.3 18.4 13.3 8.4 6.6 6.2 7.0 7.5 10.1 10.8 9.5 11.9 13.1 12.6 10.3 8.4 11.4 11.5 10.3 8.2 9.3
0.0 0.0 0.0 0.0 0.0 0.0 0.0 0.0 1.2 4.0 18.0 14.0 12.3 12.1 6.2 4.6 7.4 5.3 4.5 3.8 1.7 3.2 5.6 9.4 16.8 18.8 21.6 16.2 20.5 16.8 17.1 22.6 24.4 15.4 10.9 5.6 5.4 5.8 6.8 7.8 9.0 10.2 12.1 12.9 13.0 14.9 17.5 19.4 19.8 20.6 19.8 17.6 17.0 14.8
0.0 4.2 0.0 0.0 0.0 0.5 1.6 3.5 9.5 30.4 19.5 11.3 14.0 7.6 8.2 9.7 8.1 7.2 7.1 6.9 4.8 9.7 17.8 14.3 28.0 17.5 8.5 15.7 12.3 11.2 22.2 21.5 12.8 9.1 6.4 5.4 7.6 7.1 7.4 6.8 7.9 8.3 11.4 13.0 13.7 14.8 16.8 18.0 17.0 15.5 17.9 21.3 18.0 17.9
0.5 0.0 0.0 0.0 0.0 3.7 8.3 4.5 16.3 14.8 16.1 10.4 14.1 13.2 7.3 9.0 10.2 9.2 8.0 8.3 8.1 8.1 8.4 20.1 8.3 10.1 11.8 13.2 22.1 19.9 17.6 12.7 7.2 7.3 8.3 8.7 8.1 8.8 7.6 6.8 8.1 8.5 10.1 13.0 12.4 14.1 14.0 12.4 11.2 13.6 13.5 14.4 13.0 14.5
0.4 0.2 0.0 0.0 0.2 10.7 24.9 16.6 5.7 16.8 13.0 9.6 8.5 7.7 6.4 10.1 12.1 10.7 10.7 9.6 6.4 4.1 10.7 10.0 13.4 7.7 10.8 13.2 18.1 14.8 11.5 9.2 11.7 12.5 13.3 13.0 11.9 10.6 10.0 9.4 8.7 11.7 11.9 13.9 12.3 11.2 12.4 11.4 9.7 9.7 10.4 10.3 9.7 11.8
0.0 0.2 0.0 0.3 0.7 20.8 22.3 12.7 0.7 7.6 13.0 9.2 6.0 6.6 6.3 11.4 10.4 8.9 7.1 5.9 5.5 9.0 14.5 16.0 15.1 16.9 18.9 18.4 18.5 16.6 12.8 10.1 8.5 10.6 14.2 16.5 16.9 13.0 13.0 12.8 13.7 13.0 11.3 11.8 12.2 12.5 11.8 12.2 12.1 8.3 7.3 9.0 9.6 10.2
0.4 0.0 0.0 0.7 5.4 11.7 11.3 6.9 9.0 4.5 6.6 9.2 5.3 2.7 7.9 3.2 4.9 5.4 4.7 2.0 5.7 11.5 14.5 16.1 19.2 18.1 18.0 19.9 16.9 12.5 12.0 8.7 10.8 8.9 10.8 13.9 15.6 11.1 12.6 13.3 11.5 11.4 9.4 10.8 11.2 14.6 12.1 10.5 10.5 9.3 7.1 6.6 7.4 7.9
9.9 0.2 7.2 1.8 16.8 14.9 14.6 3.4 3.4 4.2 7.2 7.3 4.3 3.6 6.3 7.2 4.4 4.4 1.2 4.4 13.0 19.2 17.0 17.6 17.4 15.9 14.3 16.1 17.6 14.8 16.3 10.6 9.9 10.0 11.1 9.2 12.1 11.5 13.0 14.4 10.1 11.0 10.2 10.4 9.1 11.1 10.3 8.1 6.9 7.8 8.3 8.6 6.5 6.6
1.3 2.8 13.5 13.4 20.0 14.3 6.4 2.4 7.2 7.2 12.5 10.9 4.7 5.5 8.2 5.8 4.4 0.2 7.8 10.1 17.9 19.7 16.3 13.5 14.7 14.9 15.3 17.3 13.0 12.4 14.5 11.4 13.5 16.3 15.6 14.4 13.3 13.0 11.6 12.4 10.4 9.4 10.8 11.8 8.2 7.6 7.7 7.2 7.7 9.6 9.8 8.7 7.6 8.0
1.7 18.4 23.9 18.6 12.0 9.5 4.2 8.0 7.7 8.4 7.2 8.8 8.4 10.4 8.4 4.5 0.4 5.7 12.5 16.1 18.7 12.1 10.5 12.4 10.5 13.2 13.2 11.8 14.2 15.1 18.3 11.9 12.7 14.8 15.2 11.4 10.4 12.9 10.1 10.2 7.6 7.6 6.9 8.0 7.5 7.5 7.3 7.6 6.4 7.2 7.0 8.2 7.9 8.8
41.0 29.7 13.7 15.6 7.9 9.2 6.7 4.3 4.7 8.5 12.8 10.8 13.3 13.7 14.1 6.4 13.0 12.5 14.8 18.7 12.6 11.2 10.8 10.6 10.0 10.3 10.7 13.5 15.0 15.7 14.4 13.9 15.2 15.2 17.0 13.1 12.6 11.1 10.1 9.6 9.2 8.6 5.7 7.9 9.9 9.6 8.9 7.8 7.4 6.6 5.5 5.2 7.8 6.9
27.3 9.1 11.7 7.6 7.7 9.0 9.3 7.9 8.3 6.4 7.0 7.4 8.4 4.6 3.9 8.8 11.1 20.0 18.8 19.2 14.2 14.0 14.6 14.5 14.1 10.4 11.3 12.2 12.1 9.5 11.6 11.6 11.4 11.4 17.0 13.6 14.3 14.6 14.9 14.3 13.4 12.4 6.6 7.0 9.6 10.2 8.9 7.6 7.5 7.5 8.3 6.5 6.7 7.0
17.2 5.5 1.7 0.7 1.6 2.6 3.7 3.7 3.9 5.5 8.0 9.4 9.6 7.4 8.0 14.7 14.5 15.1 12.5 11.9 12.1 13.8 11.9 11.9 10.5 11.9 12.7 11.9 10.5 9.4 8.0 6.9 7.7 10.9 12.2 11.7 12.2 13.4 15.0 18.4 19.3 16.4 10.1 9.0 8.3 8.2 10.1 9.7 9.6 9.1 9.3 8.7 8.5 8.3
5.3 2.1 2.9 2.0 2.8 2.3 4.5 3.7 7.2 8.9 6.9 4.7 7.6 8.5 12.1 11.3 16.2 15.7 13.5 12.4 9.9 7.8 6.6 6.0 5.2 5.9 6.6 7.4 7.5 6.7 5.7 6.4 6.7 6.4 5.6 6.0 8.7 12.4 13.3 13.5 11.0 9.7 10.3 10.1 10.5 10.1 9.8 10.3 10.0 10.2 9.8 9.4 9.8 8.9
4.6 2.7 3.1 4.8 3.9 5.2 8.9 7.6 7.9 5.3 4.4 4.6 6.4 7.6 9.7 10.0 14.6 13.0 12.0 8.7 7.4 6.1 5.4 4.2 4.8 2.3 2.1 1.6 1.5 3.3 4.7 5.4 5.2 7.1 5.8 7.9 10.6 10.6 9.8 10.3 10.1 10.7 11.0 12.4 11.7 10.8 11.0 9.8 9.3 9.0 10.4 11.7 9.6 9.1
2.7 2.3 3.1 3.7 3.7 5.4 9.8 4.7 5.9 4.1 1.8 1.8 2.4 4.3 4.8 12.7 18.2 12.6 8.6 6.3 5.5 6.2 6.0 4.9 4.0 2.8 2.8 2.4 2.7 2.6 3.9 4.4 4.9 6.9 7.6 6.2 8.0 7.8 7.3 9.6 10.9 10.5 11.4 11.7 14.4 15.3 15.1 13.4 12.7 12.9 12.5 11.4 11.3 12.8
0.8 1.3 1.8 3.4 7.0 9.9 6.8 4.7 4.5 2.4 1.7 1.4 1.6 4.3 6.6 10.3 12.3 7.9 5.5 6.5 4.3 3.0 2.7 2.9 3.4 3.5 2.8 3.7 5.4 5.6 6.0 4.0 3.6 4.2 4.7 5.4 5.3 6.0 6.6 7.5 10.1 10.3 10.9 11.8 10.9 12.5 15.4 15.4 14.5 14.7 13.4 11.6 10.4 10.7
1.4 2.9 2.9 3.3 6.9 7.2 6.4 8.7 6.2 4.9 4.8 4.5 6.9 4.5 7.2 6.8 8.3 10.3 6.2 4.9 4.2 3.3 2.9 4.0 4.1 4.7 5.6 7.0 7.2 7.8 7.4 5.5 4.4 4.4 4.1 5.0 6.0 6.7 7.9 8.5 8.4 8.3 7.9 8.6 8.5 10.1 10.8 13.2 16.2 14.8 13.3 13.2 13.0 11.6
4.2 2.9 2.4 4.6 5.3 5.9 4.1 6.2 3.8 6.4 6.3 8.0 10.9 7.5 6.6 6.2 10.7 12.7 5.5 5.1 8.8 7.3 6.9 7.9 7.7 7.8 8.2 8.0 8.4 7.0 5.1 5.6 5.2 5.1 5.1 5.8 6.1 6.9 7.7 8.1 7.7 7.5 6.7 6.3 6.9 7.9 8.0 9.6 10.8 14.1 15.1 15.2 16.1 15.2

GFSWCAN_prec_kuchsnow_363.txt.gz
Snowfall_Accumulation
0.0 0.0 0.0 0.0 0.0 0.0 0.0 0.0 0.0 0.0 0.0 0.0 0.0 0.0 0.0 0.0 0.0 0.0 0.0 0.0 0.2 18.5 5.2 0.0 0.0 2.0 4.1 5.4 17.9 8.6 12.4 13.1 20.9 38.6 29.3 21.3 13.4 3.7 4.9 2.5 2.4 3.6 16.2 23.9 24.0 34.2 21.2 0.1 0.0 1.2 0.7 0.1 0.6 3.6
0.0 0.0 0.0 0.0 0.0 0.0 0.0 0.0 0.0 0.0 0.0 0.0 0.0 0.0 0.0 0.0 0.0 0.0 0.5 0.0 0.0 12.7 11.1 0.0 0.0 0.0 0.0 0.0 3.8 8.8 12.5 8.0 8.0 25.8 16.3 13.4 18.5 12.0 3.0 10.5 2.7 10.0 5.9 13.1 11.5 11.5 1.0 0.0 0.3 0.2 0.2 0.4 1.1 3.6
0.0 0.0 0.0 0.0 0.0 0.0 0.0 0.0 0.0 0.0 0.0 0.0 0.0 0.0 0.0 0.0 0.0 0.0 0.0 0.0 0.0 18.3 8.1 2.3 4.2 0.0 0.0 0.0 0.0 13.3 3.3 1.7 6.5 5.2 13.6 10.1 17.7 4.4 11.1 7.2 6.5 2.8 1.2 7.6 3.5 0.6 0.2 0.1 0.0 0.0 0.1 0.1 0.2 1.3
0.0 0.0 0.0 0.0 0.0 0.0 0.0 0.0 0.0 0.0 0.0 0.0 0.0 0.0 0.0 0.0 0.0 0.0 0.0 0.0 1.8 9.7 27.7 7.3 0.0 2.0 0.0 0.0 0.0 0.0 0.0 0.0 0.4 0.9 17.9 16.3 13.9 1.1 2.7 1.7 4.8 5.2 4.5 5.0 2.1 0.3 0.4 0.1 0.2 0.1 0.1 0.1 0.2 0.1
0.0 0.0 0.0 0.0 0.0 0.0 0.0 0.0 0.0 0.0 0.0 0.0 0.0 0.0 0.0 0.0 0.0 0.0 0.0 0.0 0.0 3.7 17.0 7.1 0.0 0.0 0.5 0.0 0.0 0.0 0.0 0.9 2.8 12.4 21.3 14.9 1.4 3.3 2.4 2.7 5.5 1.2 8.2 9.7 8.6 1.5 2.2 0.6 0.3 0.1 0.4 0.6 0.6 0.4
0.0 0.0 0.0 0.0 0.0 0.0 0.0 0.0 0.0 0.0 0.0 0.0 0.0 0.0 0.0 0.0 0.0 0.0 36.2 0.0 0.0 0.0 15.1 18.2 0.9 1.1 2.3 0.8 0.2 0.4 0.5 1.8 2.8 9.0 8.7 2.1 0.0 3.0 12.0 6.2 0.4 0.7 3.5 4.9 8.5 2.1 2.1 1.8 0.9 0.3 1.3 2.3 2.8 1.8
0.0 0.0 0.0 0.0 0.0 0.0 0.0 0.0 0.0 0.0 0.0 0.0 0.0 0.0 0.0 0.0 0.0 13.5 7.7 0.3 0.0 0.0 25.5 17.8 9.8 0.6 1.0 1.0 1.2 3.7 1.5 4.6 3.5 5.8 5.8 1.7 1.5 2.9 7.1 1.2 0.0 0.0 0.8 2.4 3.6 5.3 6.4 6.4 9.9 4.7 1.2 1.5 1.8 0.3
0.0 0.0 0.0 0.0 0.0 0.0 0.0 0.0 0.0 0.0 0.0 0.0 0.0 0.0 0.0 0.0 0.0 2.5 0.0 0.0 0.0 1.2 7.5 24.4 13.3 9.4 0.3 5.2 7.2 1.4 7.3 6.0 7.3 5.5 2.7 1.7 1.8 2.8 10.4 0.0 0.0 0.1 0.2 0.6 0.5 0.8 3.3 4.1 3.9 3.4 1.0 0.2 0.1 0.0
0.0 0.0 0.0 0.0 0.0 0.0 0.0 0.0 0.0 0.0 0.0 0.0 0.0 0.0 0.0 0.0 20.5 0.0 0.0 0.0 0.0 1.4 28.5 11.4 10.1 22.9 0.5 4.1 2.8 4.4 2.9 21.7 4.7 14.1 4.7 3.1 5.4 10.1 0.7 0.0 0.1 0.1 0.2 0.1 0.0 0.0 0.2 0.6 0.2 0.0 0.3 0.1 0.6 0.7
0.0 0.0 0.0 0.0 0.0 0.0 0.0 0.0 0.0 0.0 0.0 0.0 0.0 28.7 57.0 2.1 0.0 0.0 3.1 16.3 23.1 16.4 10.9 11.6 0.7 10.2 1.2 2.6 11.4 11.0 10.8 12.3 19.4 4.6 1.6 8.6 2.8 0.8 0.3 0.3 0.2 0.2 0.1 0.1 0.6 1.4 1.0 0.7 0.2 0.0 0.0 0.5 0.2 0.1
0.0 0.0 0.0 0.0 0.0 0.0 0.0 0.0 0.0 0.0 0.0 2.3 32.9 25.0 0.0 0.0 0.1 5.7 47.8 37.0 22.3 23.4 2.7 1.1 0.0 1.0 0.0 8.7 12.9 4.7 17.8 9.6 22.8 3.3 4.8 8.2 5.7 4.9 2.6 2.4 1.4 0.7 0.2 0.1 0.0 0.1 0.0 0.0 1.1 0.9 0.6 0.2 0.0 0.1
0.0 0.0 0.0 0.0 0.0 0.0 0.0 0.0 0.0 0.0 0.0 0.0 0.1 0.0 0.1 6.0 29.1 41.6 33.2 18.3 5.0 2.5 2.2 1.9 3.2 4.5 1.2 0.4 11.2 14.9 17.4 15.6 11.1 2.4 18.0 9.8 7.7 2.3 1.9 3.2 1.0 0.0 0.0 0.0 0.0 0.0 0.1 0.1 0.1 0.1 0.8 0.8 0.9 3.7
0.0 0.0 0.0 0.0 0.0 0.0 0.0 0.0 0.0 0.0 0.0 0.0 6.7 18.7 23.2 26.5 50.6 31.8 21.4 9.4 6.8 1.0 1.1 0.8 9.2 3.2 4.5 2.6 15.7 18.9 36.1 18.6 2.8 31.6 19.2 11.9 4.2 4.8 4.1 0.8 0.3 0.4 0.5 0.2 0.6 0.0 0.0 0.0 0.7 1.6 2.8 6.2 5.8 6.0
0.0 0.0 0.0 0.0 0.0 0.0 0.0 0.0 0.0 0.0 0.5 17.4 28.4 42.5 25.5 21.3 11.5 6.3 3.5 2.2 0.9 0.7 1.0 2.8 7.2 10.1 3.9 11.5 10.2 25.3 13.1 12.7 28.1 19.9 19.5 16.8 8.2 4.8 3.9 3.4 4.2 4.5 3.2 2.2 1.1 0.8 1.9 1.6 3.0 4.5 4.7 7.0 6.5 7.0
0.0 0.0 0.0 0.0 0.0 0.0 0.0 0.0 0.0 0.0 13.9 25.5 13.0 18.7 9.4 7.5 4.6 3.4 2.2 1.3 1.1 1.8 4.3 9.4 9.5 8.6 16.6 28.9 11.9 10.0 19.2 20.7 14.8 22.3 18.4 13.3 8.4 6.6 6.2 7.0 7.5 10.1 10.8 9.5 11.9 13.1 12.6 10.3 8.4 11.4 11.5 10.3 8.2 9.3
0.0 0.0 0.0 0.0 0.0 0.0 0.0 0.0 1.2 4.0 18.0 14.0 12.3 12.1 6.2 4.6 7.4 5.3 4.5 3.8 1.7 3.2 5.6 9.4 16.8 18.8 21.6 16.2 20.5 16.8 17.1 22.6 24.4 15.4 10.9 5.6 5.4 5.8 6.8 7.8 9.0 10.2 12.1 12.9 13.0 14.9 17.5 19.4 19.8 20.6 19.8 17.6 17.0 14.8
0.0 4.2 0.0 0.0 0.0 0.5 1.6 3.5 9.5 30.6 19.7 11.3 14.0 7.6 8.2 9.7 8.1 7.2 7.1 6.9 4.8 9.7 17.8 14.3 28.0 17.5 8.5 15.7 12.3 11.2 22.2 21.5 12.8 9.1 6.4 5.4 7.6 7.1 7.4 6.8 7.9 8.3 11.4 13.0 13.7 14.8 16.8 18.0 17.0 15.5 17.9 21.3 18.0 17.9
1.7 0.0 0.0 0.0 0.0 3.7 8.3 4.5 16.3 15.5 16.4 10.4 14.1 13.2 7.3 9.0 10.2 9.2 8.0 8.3 8.1 8.1 8.4 20.1 8.3 10.1 11.8 13.2 22.1 19.9 17.6 12.7 7.2 7.3 8.3 8.7 8.1 8.8 7.6 6.8 8.1 8.5 10.1 13.0 12.4 14.1 14.0 12.4 11.2 13.6 13.5 14.4 13.0 14.5
0.4 0.2 0.0 0.0 0.2 10.7 26.2 18.3 5.7 17.5 13.1 9.6 8.5 7.7 6.4 10.1 12.1 10.7 10.7 9.6 6.4 4.1 10.7 10.0 13.4 7.7 10.8 13.2 18.1 14.8 11.5 9.2 11.7 12.5 13.3 13.0 11.9 10.6 10.0 9.4 8.7 11.7 11.9 13.9 12.3 11.2 12.4 11.4 9.7 9.7 10.4 10.3 9.7 11.8
0.0 0.2 0.0 0.3 0.7 21.3 23.3 13.9 0.7 7.6 13.1 9.2 6.0 6.6 6.3 11.4 10.4 8.9 7.1 5.9 5.5 9.0 14.5 16.0 15.1 16.9 18.9 18.4 18.5 16.6 12.8 10.1 8.5 10.6 14.2 16.5 16.9 13.0 13.0 12.8 13.7 13.0 11.3 11.8 12.2 12.5 11.8 12.2 12.1 8.3 7.3 9.0 9.6 10.2
0.4 0.0 0.0 0.7 5.4 11.7 11.4 7.2 9.2 4.5 6.6 9.2 5.3 2.7 7.9 3.2 4.9 5.4 4.7 2.0 5.7 11.5 14.5 16.1 19.2 18.1 18.0 19.9 16.9 12.5 12.0 8.7 10.8 8.9 10.8 13.9 15.6 11.1 12.6 13.3 11.5 11.4 9.4 10.8 11.2 14.6 12.1 10.5 10.5 9.3 7.1 6.6 7.4 7.9
9.9 0.2 8.7 1.8 17.1 14.9 14.6 3.4 3.4 4.2 7.2 7.4 4.3 3.6 6.3 7.2 4.4 4.4 1.2 4.4 13.0 19.2 17.0 17.6 17.4 15.9 14.3 16.1 17.6 14.8 16.3 10.6 9.9 10.0 11.1 9.2 12.1 11.5 13.0 14.4 10.1 11.0 10.2 10.4 9.1 11.1 10.3 8.1 6.9 7.8 8.3 8.6 6.5 6.6
1.3 2.8 13.7 14.0 21.2 14.9 7.1 2.4 7.2 7.2 12.6 11.3 4.8 5.5 8.2 5.8 4.4 0.2 7.8 10.1 17.9 19.7 16.3 13.5 14.7 14.9 15.3 17.3 13.0 12.4 14.5 11.4 13.5 16.3 15.6 14.4 13.3 13.0 11.6 12.4 10.4 9.4 10.8 11.8 8.2 7.6 7.7 7.2 7.7 9.6 9.8 8.7 7.6 8.0
1.7 19.8 26.2 20.3 12.7 9.7 4.2 8.1 7.7 8.4 7.2 8.9 8.5 10.4 8.4 4.5 0.4 5.7 12.5 16.1 18.7 12.1 10.5 12.4 10.5 13.2 13.2 11.8 14.2 15.1 18.3 11.9 12.7 14.8 15.2 11.4 10.4 12.9 10.1 10.2 7.6 7.6 6.9 8.0 7.5 7.5 7.3 7.6 6.4 7.2 7.0 8.2 7.9 8.8
42.7 32.1 14.2 16.2 7.9 9.2 6.7 4.3 4.7 8.5 12.8 10.8 13.3 13.7 14.1 6.4 13.0 12.5 14.8 18.7 12.6 11.2 10.8 10.6 10.0 10.3 10.7 13.5 15.0 15.7 14.4 13.9 15.2 15.2 17.0 13.1 12.6 11.1 10.1 9.6 9.2 8.6 5.7 7.9 9.9 9.6 8.9 7.8 7.4 6.6 5.5 5.2 7.8 6.9
28.6 9.3 11.8 7.6 7.7 9.0 9.3 7.9 8.3 6.4 7.0 7.4 8.4 4.6 3.9 8.8 11.1 20.0 18.8 19.2 14.2 14.0 14.6 14.5 14.1 10.4 11.3 12.2 12.1 9.5 11.6 11.6 11.4 11.4 17.0 13.6 14.3 14.6 14.9 14.3 13.4 12.4 6.6 7.0 9.6 10.2 8.9 7.6 7.5 7.5 8.3 6.5 6.7 7.2
17.2 5.5 1.7 0.7 1.6 2.6 3.7 3.7 3.9 5.5 8.0 9.4 9.6 7.4 8.0 14.7 14.5 15.1 12.5 11.9 12.1 13.8 11.9 11.9 10.5 11.9 12.7 11.9 10.5 9.4 8.0 6.9 7.7 10.9 12.2 11.7 12.2 13.4 15.0 18.4 19.3 16.4 10.1 9.0 8.3 8.2 10.1 9.7 9.6 9.1 9.3 8.7 8.5 8.3
5.3 2.1 2.9 2.0 2.8 2.3 4.5 3.7 7.2 8.9 6.9 4.7 7.6 8.5 12.1 11.3 16.2 15.7 13.5 12.4 9.9 7.8 6.6 6.0 5.2 5.9 6.6 7.4 7.5 6.7 5.7 6.4 6.7 6.4 5.6 6.0 8.7 12.4 13.3 13.5 11.0 9.7 10.3 10.1 10.5 10.1 9.8 10.3 10.0 10.3 10.0 9.6 10.0 8.9
4.6 2.7 3.1 4.8 3.9 5.2 8.9 7.6 7.9 5.3 4.4 4.6 6.4 7.6 9.7 10.0 14.6 13.0 12.0 8.7 7.4 6.1 5.4 4.2 4.8 2.3 2.1 1.6 1.5 3.3 4.7 5.4 5.2 7.1 5.8 7.9 10.6 10.6 9.8 10.3 10.1 10.7 11.0 12.4 11.8 10.9 11.5 10.5 10.1 9.7 11.0 12.1 9.9 9.3
2.7 2.3 3.1 3.7 3.7 5.4 9.8 4.7 5.9 4.1 1.8 1.8 2.4 4.3 4.8 12.7 18.2 12.6 8.6 6.3 5.5 6.2 6.0 4.9 4.0 2.8 2.8 2.4 2.7 2.6 3.9 4.4 4.9 6.9 7.7 6.2 8.0 7.8 7.3 9.6 10.9 10.6 11.5 12.1 15.1 16.0 16.0 14.4 13.6 13.9 13.5 12.3 12.2 13.7
0.8 1.3 1.8 3.4 7.0 9.9 6.8 4.7 4.5 2.4 1.7 1.4 1.6 4.3 6.6 10.3 12.3 7.9 5.5 6.5 4.3 3.0 2.7 2.9 3.4 3.5 2.8 3.7 5.4 5.6 6.0 4.0 3.6 4.2 4.8 5.4 5.3 6.0 6.7 7.8 10.5 11.0 11.8 12.8 11.9 13.5 16.5 16.3 15.4 15.6 14.3 12.7 11.4 11.6
1.4 2.9 2.9 3.3 6.9 7.2 6.4 8.7 6.2 4.9 4.8 4.5 6.9 4.5 7.2 6.8 8.3 10.3 6.2 4.9 4.2 3.3 2.9 4.0 4.1 4.7 5.6 7.1 7.2 7.8 7.5 5.5 4.4 4.4 4.2 5.1 6.2 7.1 8.4 9.3 9.3 9.2 8.7 9.3 9.3 11.0 11.6 13.9 16.7 15.1 13.6 13.6 13.5 12.1
4.2 2.9 2.4 4.6 5.3 5.9 4.1 6.2 3.8 6.4 6.3 8.0 10.9 7.5 6.6 6.2 10.7 12.7 5.5 5.1 8.8 7.3 6.9 7.9 7.7 7.8 8.2 8.0 8.5 7.2 5.3 5.8 5.5 5.4 5.5 6.3 6.7 7.5 8.5 8.9 8.5 8.1 7.2 6.8 7.3 8.3 8.4 10.0 11.0 14.4 15.4 15.4 16.4 15.5

GFSWCAN_prec_kuchsnow_369.txt.gz
Snowfall_Accumulation
0.0 0.0 0.0 0.0 0.0 0.0 0.0 0.0 0.0 0.0 0.0 0.0 0.0 0.0 0.0 0.0 0.0 0.0 0.0 0.0 0.2 18.5 5.2 0.0 0.0 2.0 4.1 5.4 17.9 8.6 12.4 13.1 20.9 38.6 29.3 21.3 13.4 3.7 4.9 2.5 2.4 3.6 16.2 23.9 24.0 34.2 21.2 0.1 0.0 1.2 0.7 0.1 0.6 3.6
0.0 0.0 0.0 0.0 0.0 0.0 0.0 0.0 0.0 0.0 0.0 0.0 0.0 0.0 0.0 0.0 0.0 0.0 0.5 0.0 0.0 12.7 11.1 0.0 0.0 0.0 0.0 0.0 3.8 8.8 12.5 8.0 8.0 25.8 16.3 13.4 18.5 12.0 3.0 10.5 2.7 10.0 5.9 13.1 11.5 11.5 1.0 0.0 0.3 0.2 0.2 0.4 1.1 3.6
0.0 0.0 0.0 0.0 0.0 0.0 0.0 0.0 0.0 0.0 0.0 0.0 0.0 0.0 0.0 0.0 0.0 0.0 0.0 0.0 0.0 18.3 8.1 2.3 4.2 0.0 0.0 0.0 0.0 13.3 3.3 1.7 6.5 5.2 13.6 10.1 17.7 4.4 11.1 7.2 6.5 2.8 1.2 7.6 3.5 0.6 0.2 0.1 0.0 0.0 0.1 0.1 0.2 1.3
0.0 0.0 0.0 0.0 0.0 0.0 0.0 0.0 0.0 0.0 0.0 0.0 0.0 0.0 0.0 0.0 0.0 0.0 0.0 0.0 1.8 9.7 27.7 7.3 0.0 2.0 0.0 0.0 0.0 0.0 0.0 0.0 0.4 0.9 17.9 16.3 13.9 1.1 2.7 1.7 4.8 5.2 4.5 5.0 2.1 0.3 0.4 0.1 0.2 0.1 0.1 0.1 0.2 0.1
0.0 0.0 0.0 0.0 0.0 0.0 0.0 0.0 0.0 0.0 0.0 0.0 0.0 0.0 0.0 0.0 0.0 0.0 0.0 0.0 0.0 3.7 17.0 7.1 0.0 0.0 0.5 0.0 0.0 0.0 0.0 0.9 2.8 12.4 21.3 14.9 1.4 3.3 2.4 2.7 5.5 1.2 8.2 9.7 8.6 1.5 2.2 0.6 0.3 0.1 0.4 0.6 0.6 0.4
0.0 0.0 0.0 0.0 0.0 0.0 0.0 0.0 0.0 0.0 0.0 0.0 0.0 0.0 0.0 0.0 0.0 0.0 37.1 0.0 0.0 0.0 15.1 18.2 0.9 1.1 2.3 0.8 0.2 0.4 0.5 1.8 2.8 9.0 8.7 2.1 0.0 3.0 12.0 6.2 0.4 0.7 3.5 4.9 8.5 2.1 2.1 1.8 0.9 0.3 1.3 2.3 2.8 1.8
0.0 0.0 0.0 0.0 0.0 0.0 0.0 0.0 0.0 0.0 0.0 0.0 0.0 0.0 0.0 0.0 0.0 13.5 7.7 0.3 0.0 0.0 25.5 17.8 9.8 0.6 1.0 1.0 1.2 3.7 1.5 4.6 3.5 5.9 5.8 1.7 1.5 2.9 7.1 1.2 0.0 0.0 0.8 2.4 3.6 5.3 6.4 6.4 9.9 4.7 1.2 1.5 1.8 0.3
0.0 0.0 0.0 0.0 0.0 0.0 0.0 0.0 0.0 0.0 0.0 0.0 0.0 0.0 0.0 0.0 0.0 2.5 0.0 0.0 0.0 1.2 7.5 24.4 13.3 9.4 0.3 5.2 7.2 1.4 7.3 6.0 7.3 5.5 2.7 1.7 1.8 2.8 10.4 0.0 0.0 0.1 0.2 0.6 0.5 0.8 3.3 4.1 3.9 3.4 1.0 0.2 0.1 0.0
0.0 0.0 0.0 0.0 0.0 0.0 0.0 0.0 0.0 0.0 0.0 0.0 0.0 0.0 0.0 0.0 20.5 0.0 0.0 0.0 0.0 1.4 28.5 11.4 10.1 22.9 0.5 4.1 2.8 4.4 2.9 21.7 4.7 14.1 4.7 3.1 5.4 10.1 0.7 0.0 0.1 0.1 0.2 0.1 0.0 0.0 0.2 0.6 0.2 0.0 0.3 0.1 0.6 0.7
0.0 0.0 0.0 0.0 0.0 0.0 0.0 0.0 0.0 0.0 0.0 0.0 0.0 28.7 59.1 2.1 0.0 0.0 3.1 16.3 23.1 16.4 10.9 11.6 0.7 10.2 1.2 2.6 11.4 11.0 10.8 12.3 19.4 4.6 1.6 8.6 2.8 0.8 0.3 0.3 0.2 0.2 0.1 0.1 0.6 1.4 1.0 0.7 0.2 0.0 0.0 0.5 0.2 0.1
0.0 0.0 0.0 0.0 0.0 0.0 0.0 0.0 0.0 0.0 0.0 2.3 34.8 25.8 0.0 0.0 0.1 5.7 47.8 37.0 22.3 23.4 2.7 1.1 0.0 1.0 0.0 8.7 12.9 4.7 17.8 9.6 22.8 3.3 4.8 8.2 5.7 4.9 2.6 2.4 1.4 0.7 0.2 0.1 0.0 0.1 0.0 0.0 1.1 0.9 0.6 0.2 0.0 0.1
0.0 0.0 0.0 0.0 0.0 0.0 0.0 0.0 0.0 0.0 0.0 0.0 0.1 0.0 0.1 6.0 29.1 41.6 33.2 18.3 5.0 2.5 2.2 1.9 3.2 4.5 1.2 0.4 11.2 14.9 17.4 15.6 11.1 2.4 18.0 9.8 7.7 2.3 1.9 3.2 1.0 0.0 0.0 0.0 0.0 0.0 0.1 0.1 0.1 0.1 0.8 0.8 0.9 3.7
0.0 0.0 0.0 0.0 0.0 0.0 0.0 0.0 0.0 0.0 0.0 0.0 6.7 18.8 23.2 26.5 50.6 31.8 21.4 9.4 6.8 1.0 1.1 0.8 9.2 3.2 4.5 2.6 15.7 18.9 36.1 18.6 2.8 31.6 19.2 11.9 4.2 4.8 4.1 0.8 0.3 0.4 0.5 0.2 0.6 0.0 0.0 0.0 0.7 1.6 2.8 6.2 5.8 6.0
0.0 0.0 0.0 0.0 0.0 0.0 0.0 0.0 0.0 0.0 0.5 17.8 28.7 42.5 25.5 21.3 11.5 6.3 3.5 2.2 0.9 0.7 1.0 2.8 7.2 10.1 3.9 11.5 10.2 25.3 13.1 12.7 28.1 19.9 19.5 16.8 8.2 4.8 3.9 3.4 4.2 4.5 3.2 2.2 1.1 0.8 1.9 1.6 3.0 4.5 4.7 7.0 6.5 7.0
0.0 0.0 0.0 0.0 0.0 0.0 0.0 0.0 0.0 0.0 13.9 25.9 13.0 18.7 9.4 7.5 4.6 3.4 2.2 1.3 1.1 1.8 4.3 9.4 9.5 8.6 16.6 28.9 11.9 10.0 19.2 20.7 14.8 22.3 18.4 13.3 8.4 6.6 6.2 7.0 7.5 10.1 10.8 9.5 11.9 13.1 12.6 10.3 8.4 11.4 11.5 10.3 8.2 9.3
0.0 0.0 0.0 0.0 0.0 0.0 0.0 0.0 1.2 4.0 18.1 14.1 12.3 12.1 6.2 4.6 7.4 5.3 4.5 3.8 1.7 3.2 5.6 9.4 16.8 18.8 21.6 16.2 20.5 16.8 17.1 22.6 24.4 15.4 10.9 5.6 5.4 5.8 6.8 7.8 9.0 10.2 12.1 12.9 13.0 14.9 17.5 19.4 19.8 20.6 19.8 17.6 17.0 14.8
0.0 4.2 0.0 0.0 0.0 0.5 1.6 3.5 9.5 31.5 19.8 11.3 14.0 7.6 8.2 9.7 8.1 7.2 7.1 6.9 4.8 9.7 17.8 14.3 28.0 17.5 8.5 15.7 12.3 11.2 22.2 21.5 12.8 9.1 6.4 5.4 7.6 7.1 7.4 6.8 7.9 8.3 11.4 13.0 13.7 14.8 16.8 18.0 17.0 15.5 17.9 21.3 18.0 17.9
1.8 0.0 0.0 0.0 0.0 3.7 8.3 4.5 17.9 16.4 16.8 10.4 14.1 13.2 7.3 9.0 10.2 9.2 8.0 8.3 8.1 8.1 8.4 20.1 8.3 10.1 11.8 13.2 22.1 19.9 17.6 12.7 7.2 7.3 8.3 8.7 8.1 8.8 7.6 6.8 8.1 8.5 10.1 13.0 12.4 14.1 14.0 12.4 11.2 13.6 13.5 14.4 13.0 14.5
1.0 0.2 0.0 0.0 0.2 10.7 27.5 19.7 5.9 17.6 13.2 9.6 8.5 7.7 6.4 10.1 12.1 10.7 10.7 9.6 6.4 4.1 10.7 10.0 13.4 7.7 10.8 13.2 18.1 14.8 11.5 9.2 11.7 12.5 13.3 13.0 11.9 10.6 10.0 9.4 8.7 11.7 11.9 13.9 12.3 11.2 12.4 11.4 9.7 9.7 10.4 10.3 9.7 11.8
0.0 0.2 0.0 0.3 0.7 21.3 23.7 14.6 0.7 7.6 13.1 9.2 6.0 6.6 6.3 11.4 10.4 8.9 7.1 5.9 5.5 9.0 14.5 16.0 15.1 16.9 18.9 18.4 18.5 16.6 12.8 10.1 8.5 10.6 14.2 16.5 16.9 13.0 13.0 12.8 13.7 13.0 11.3 11.8 12.2 12.5 11.8 12.2 12.1 8.3 7.3 9.0 9.6 10.2
0.4 0.0 0.0 0.7 5.4 11.7 11.4 7.5 9.2 4.5 6.6 9.2 5.3 2.7 7.9 3.2 4.9 5.4 4.7 2.0 5.7 11.5 14.5 16.1 19.2 18.1 18.0 19.9 16.9 12.5 12.0 8.7 10.8 8.9 10.8 13.9 15.6 11.1 12.6 13.3 11.5 11.4 9.4 10.8 11.2 14.6 12.1 10.5 10.5 9.3 7.1 6.6 7.4 7.9
11.2 0.2 8.7 1.8 17.2 14.9 14.7 3.4 3.4 4.2 7.3 7.7 4.5 3.6 6.3 7.2 4.4 4.4 1.2 4.4 13.0 19.2 17.0 17.6 17.4 15.9 14.3 16.1 17.6 14.8 16.3 10.6 9.9 10.0 11.1 9.2 12.1 11.5 13.0 14.4 10.1 11.0 10.2 10.4 9.1 11.1 10.3 8.1 6.9 7.8 8.3 8.6 6.5 6.6
1.3 2.8 14.2 14.6 21.3 15.5 8.3 2.4 7.2 7.2 13.1 11.7 5.1 5.6 8.2 5.8 4.4 0.2 7.8 10.1 17.9 19.7 16.3 13.5 14.7 14.9 15.3 17.3 13.0 12.4 14.5 11.4 13.5 16.3 15.6 14.4 13.3 13.0 11.6 12.4 10.4 9.4 10.8 11.8 8.2 7.6 7.7 7.2 7.7 9.6 9.8 8.7 7.6 8.0
1.7 20.2 27.1 20.9 12.7 10.1 4.4 8.2 7.8 8.4 7.2 8.9 8.5 10.4 8.4 4.5 0.4 5.7 12.5 16.1 18.7 12.1 10.5 12.4 10.5 13.2 13.2 11.8 14.2 15.1 18.3 11.9 12.7 14.8 15.2 11.4 10.4 12.9 10.1 10.2 7.6 7.6 6.9 8.0 7.5 7.5 7.3 7.6 6.4 7.2 7.0 8.2 7.9 8.8
43.3 32.8 14.2 16.2 7.9 9.2 6.7 4.3 4.7 8.5 12.8 10.8 13.3 13.7 14.1 6.4 13.0 12.5 14.8 18.7 12.6 11.2 10.8 10.6 10.0 10.3 10.7 13.5 15.0 15.7 14.4 13.9 15.2 15.2 17.0 13.1 12.6 11.1 10.1 9.6 9.2 8.6 5.7 7.9 9.9 9.6 8.9 7.8 7.4 6.6 5.5 5.2 7.8 6.9
28.6 9.3 11.8 7.6 7.7 9.0 9.3 7.9 8.3 6.4 7.0 7.4 8.4 4.6 3.9 8.8 11.1 20.0 18.8 19.2 14.2 14.0 14.6 14.5 14.1 10.4 11.3 12.2 12.1 9.5 11.6 11.6 11.4 11.4 17.0 13.6 14.3 14.6 14.9 14.3 13.4 12.4 6.6 7.0 9.6 10.2 8.9 7.6 7.5 7.5 8.3 6.5 6.7 7.2
17.2 5.5 1.7 0.7 1.6 2.6 3.7 3.7 3.9 5.5 8.0 9.4 9.6 7.4 8.0 14.7 14.5 15.1 12.5 11.9 12.1 13.8 11.9 11.9 10.5 11.9 12.7 11.9 10.5 9.4 8.0 6.9 7.7 10.9 12.2 11.7 12.2 13.4 15.0 18.4 19.3 16.4 10.1 9.0 8.3 8.2 10.1 9.8 9.7 9.1 9.3 8.7 8.5 8.3
5.3 2.1 2.9 2.0 2.8 2.3 4.5 3.7 7.2 8.9 6.9 4.7 7.6 8.5 12.1 11.3 16.2 15.7 13.5 12.4 9.9 7.8 6.6 6.0 5.2 5.9 6.6 7.4 7.5 6.7 5.7 6.4 6.7 6.4 5.6 6.0 8.7 12.4 13.3 13.5 11.0 9.7 10.4 10.1 10.5 10.1 10.0 10.6 10.5 10.7 10.4 10.0 10.2 9.1
4.6 2.7 3.1 4.8 3.9 5.2 8.9 7.6 7.9 5.3 4.4 4.6 6.4 7.6 9.7 10.0 14.6 13.0 12.0 8.7 7.4 6.1 5.4 4.2 4.8 2.3 2.1 1.6 1.5 3.3 4.7 5.4 5.2 7.1 5.8 7.9 10.6 10.6 9.8 10.3 10.1 10.7 11.0 12.4 12.0 11.3 12.1 11.5 11.2 10.9 12.1 13.1 10.7 9.9
2.7 2.3 3.1 3.7 3.7 5.4 9.8 4.7 5.9 4.1 1.8 1.8 2.4 4.3 4.8 12.7 18.2 12.6 8.6 6.3 5.5 6.2 6.0 4.9 4.0 2.8 2.8 2.4 2.7 2.6 3.9 4.4 4.9 7.0 7.9 6.5 8.1 7.8 7.4 9.7 11.0 10.6 11.7 12.3 15.4 16.3 16.2 14.8 14.3 14.6 13.9 12.7 12.6 14.4
0.8 1.3 1.8 3.4 7.0 9.9 6.8 4.7 4.5 2.4 1.7 1.4 1.6 4.3 6.6 10.3 12.3 7.9 5.5 6.5 4.3 3.0 2.7 2.9 3.4 3.5 2.8 3.7 5.4 5.7 6.1 4.0 3.6 4.3 5.1 5.8 5.6 6.2 7.0 8.0 10.9 11.3 12.1 13.2 12.2 13.9 16.8 16.7 15.8 15.7 14.3 12.7 11.7 12.0
1.4 2.9 2.9 3.3 6.9 7.2 6.4 8.7 6.2 4.9 4.8 4.5 6.9 4.5 7.2 6.8 8.3 10.3 6.2 4.9 4.2 3.3 2.9 4.0 4.1 4.7 5.6 7.1 7.2 8.0 7.8 5.8 4.7 4.7 4.4 5.4 6.4 7.3 8.7 9.6 9.6 9.5 9.0 9.6 9.5 11.2 11.8 14.1 16.8 15.3 13.7 13.6 13.5 12.1
4.2 2.9 2.4 4.6 5.3 5.9 4.1 6.2 3.8 6.4 6.3 8.0 10.9 7.5 6.6 6.2 10.7 12.7 5.5 5.1 8.8 7.3 6.9 7.9 7.7 7.8 8.3 8.2 8.7 7.5 5.7 6.1 5.8 5.6 5.7 6.6 7.0 8.0 8.9 9.3 8.8 8.3 7.4 6.9 7.3 8.3 8.4 10.0 11.0 14.5 15.5 15.4 16.4 15.6